Hourly Data Report for October 06, 2015

All times are specified in Local Standard Time (LST). Add 1 hour to adjust for Daylight Saving Time where and when it is observed.

GJOA HAVEN A
NUNAVUT

68°38'08.000" N
95°51'01.000" W
46.90 m
2302337
71597
YHK

Download Data

Hourly Data (October 2015)
Hourly Data Report for October 6, 2015
Temp Definition
°C
Dew Point Temp Definition
°C
Rel Hum Definition
%
Wind Dir Definition
10's deg

Wind Spd Definition
km/h
Visibility Definition
km
Stn Press Definition
kPa
Hmdx Definition


Wind Chill Definition


Weather Definition


TIME
00:00 Legend Double Dagger -1.8 -2.2 97 30 15 16.1 99.95   -7 LegendNANA
01:00 Legend Double Dagger -2.1 -2.7 96 29 18 14.5 99.96   -8 Snow
02:00 Legend Double Dagger -2.6 -3.3 95 28 17 16.1 99.98   -8 LegendNANA
03:00 Legend Double Dagger -4.1 -4.6 96 29 18 16.1 99.99   -10 LegendNANA
04:00 Legend Double Dagger -5.6 -6.1 96 27 13 16.1 100.00   -11 LegendNANA
05:00 Legend Double Dagger -4.3 -4.7 97 25 17 16.1 99.99   -10 LegendNANA
06:00 Legend Double Dagger -3.8 -4.8 93 24 15 16.1 99.97   -9 LegendNANA
07:00 Legend Double Dagger -2.5 -3.5 93 24 30 16.1 99.94   -10 LegendNANA
08:00 Legend Double Dagger -1.7 -3.8 85 24 28 16.1 99.92   -8 LegendNANA
09:00 Legend Double Dagger -2.2 -3.2 93 25 24 16.1 99.91   -9 LegendNANA
10:00 Legend Double Dagger -4.1 -5.5 90 29 48 3.6 99.94   -14 Fog
11:00 Legend Double Dagger -5.2 -7.6 83 29 39 16.1 100.03   -14 LegendNANA
12:00 Legend Double Dagger -6.0 -9.2 78 28 39 16.1 100.10   -15 LegendNANA
13:00 Legend Double Dagger -5.1 -8.8 76 27 28 16.1 100.10   -13 LegendNANA
14:00 Legend Double Dagger -5.2 -8.0 81 28 26 16.1 100.13   -13 LegendNANA
15:00 Legend Double Dagger -6.0 -9.2 78 29 30 16.1 100.15   -14 LegendNANA
16:00 Legend Double Dagger -6.7 -9.3 82 27 18 16.1 100.16   -13 LegendNANA
17:00 Legend Double Dagger -7.1 -9.8 82 27 21 16.1 100.14   -14 LegendNANA
18:00 Legend Double Dagger -6.9 -9.8 80 27 22 16.1 100.12   -14 LegendNANA
19:00 Legend Double Dagger -6.6 -9.7 79 26 24 16.1 100.09   -14 LegendNANA
20:00 Legend Double Dagger -6.7 -9.6 80 26 22 16.1 100.06   -14 LegendNANA
21:00 Legend Double Dagger -7.6 -9.6 86 28 17 16.1 100.04   -14 LegendNANA
22:00 Legend Double Dagger -7.6 -9.6 86 28 15 16.1 100.02   -14 LegendNANA
23:00 Legend Double Dagger -7.8 -9.6 87 28 13 16.1 99.99   -14 LegendNANA

Notes on Data Quality.

Legend

  • E = Estimated
  • M = Missing
  • NA = Not Available
  • ‡ = Partner data that is not subject to review by the National Climate Archives
Date modified: